EW9356 Weather Reports


Display with metric or nautical units.
time (UTC)temp
F
wind
direction
speed
MPH
gust
MPH
rain 1hr
in
rain 24hr
in
rain mn
in
humidity
%
barometer
mb
20260505002014 50 240 10.0 16.0 0.00 0.00 0.00 92 1011.5
20260505001551 50 210 11.0 16.0 0.00 0.00 0.00 92 1011.2
20260505001014 50 215 13.0 18.0 0.00 0.00 0.00 92 1010.9
20260505000516 51 210 14.0 19.0 0.00 0.00 0.00 91 1010.9
20260505000054 51 198 15.0 20.0 0.00 0.00 0.00 91 1010.8
20260504235516 51 200 16.0 20.0 0.00 0.00 0.00 91 1010.8
20260504235015 51 195 15.0 21.0 0.00 0.00 0.00 91 1010.8
20260504234541 51 202 16.0 21.0 0.00 0.00 0.00 91 1010.8
20260504234015 51 192 16.0 21.0 0.00 0.00 0.00 90 1010.9
20260504233515 51 182 17.0 21.0 0.00 0.00 0.00 90 1010.5
20260504233041 51 194 17.0 21.0 0.00 0.00 0.00 90 1010.6
20260504232514 51 180 17.0 19.0 0.00 0.00 0.00 89 1010.6
20260504232017 51 193 16.0 20.0 0.00 0.00 0.00 89 1010.7
20260504231556 52 191 16.0 21.0 0.00 0.00 0.00 89 1010.7
20260504231015 52 191 16.0 21.0 0.00 0.00 0.00 88 1010.8
20260504230515 52 196 15.0 20.0 0.00 0.00 0.00 88 1010.9
20260504230041 52 197 14.0 18.0 0.00 0.00 0.00 88 1010.9
20260504225518 52 200 13.0 18.0 0.00 0.00 0.00 88 1011.0
20260504225017 52 188 12.0 18.0 0.00 0.00 0.00 87 1011.1
20260504224542 52 196 14.0 18.0 0.00 0.00 0.00 87 1011.1
20260504224018 52 204 13.0 17.0 0.00 0.00 0.00 87 1011.2
20260504223519 52 193 13.0 16.0 0.00 0.00 0.00 87 1011.1
20260504223047 52 190 13.0 18.0 0.00 0.00 0.00 87 1011.0
20260504222515 52 188 14.0 18.0 0.00 0.00 0.00 87 1011.1
20260504222018 52 195 13.0 16.0 0.00 0.00 0.00 86 1011.1
20260504221553 52 195 13.0 18.0 0.00 0.00 0.00 86 1011.2
20260504221015 52 187 12.0 17.0 0.00 0.00 0.00 86 1011.1
20260504220517 52 184 13.0 18.0 0.00 0.00 0.00 86 1011.1
20260504220045 52 198 14.0 18.0 0.00 0.00 0.00 86 1011.1
20260504215517 52 194 14.0 20.0 0.00 0.00 0.00 86 1011.2
20260504215015 52 194 15.0 20.0 0.00 0.00 0.00 85 1011.1
20260504214544 52 191 14.0 20.0 0.00 0.00 0.00 86 1011.1
20260504214020 52 193 15.0 20.0 0.00 0.00 0.00 86 1011.1
20260504213514 52 200 16.0 21.0 0.00 0.00 0.00 86 1011.1
20260504213053 52 190 14.0 20.0 0.00 0.00 0.00 85 1011.0
20260504212517 52 186 16.0 22.0 0.00 0.00 0.00 86 1011.2
20260504212015 52 196 16.0 21.0 0.00 0.00 0.00 85 1011.2
20260504211547 52 199 16.0 21.0 0.00 0.00 0.00 85 1011.3
20260504211018 52 200 16.0 22.0 0.00 0.00 0.00 85 1011.2
20260504210517 52 188 18.0 22.0 0.00 0.00 0.00 85 1011.2
20260504210108 52 201 16.0 22.0 0.00 0.00 0.00 85 1011.1
20260504205516 52 212 17.0 22.0 0.00 0.00 0.00 85 1011.0
20260504205017 52 216 17.0 22.0 0.00 0.00 0.00 85 1011.1
20260504204559 52 203 17.0 24.0 0.00 0.00 0.00 85 1010.9
20260504204017 52 189 19.0 24.0 0.00 0.00 0.00 84 1010.9
20260504203521 52 195 18.0 23.0 0.00 0.00 0.00 84 1010.7
20260504203047 52 191 19.0 22.0 0.00 0.00 0.00 84 1010.8
20260504202516 52 189 18.0 23.0 0.00 0.00 0.00 84 1010.8
20260504202018 52 182 18.0 23.0 0.00 0.00 0.00 84 1010.9
20260504201547 52 192 18.0 23.0 0.00 0.00 0.00 84 1010.8
20260504201016 52 212 18.0 22.0 0.00 0.00 0.00 84 1011.2
20260504200517 52 197 18.0 22.0 0.00 0.00 0.00 84 1011.1
20260504200040 52 192 16.0 22.0 0.00 0.00 0.00 84 1011.1
20260504195515 52 189 17.0 22.0 0.00 0.00 0.00 84 1011.2
20260504195019 52 192 18.0 24.0 0.00 0.00 0.00 84 1011.1
20260504194603 52 195 19.0 24.0 0.00 0.00 0.00 83 1011.2
20260504194019 52 194 18.0 23.0 0.00 0.00 0.00 83 1011.2
20260504193518 52 196 17.0 22.0 0.00 0.00 0.00 83 1011.4
20260504193034 52 188 18.0 21.0 0.00 0.00 0.00 83 1011.3
20260504192519 52 183 18.0 22.0 0.00 0.00 0.00 83 1011.4
20260504192016 52 200 18.0 21.0 0.00 0.00 0.00 83 1011.3
20260504191550 52 200 17.0 23.0 0.00 0.00 0.00 83 1011.3
20260504191018 52 192 19.0 22.0 0.00 0.00 0.00 83 1011.3
20260504190520 52 202 18.0 22.0 0.00 0.00 0.00 83 1011.3
20260504185521 52 196 17.0 21.0 0.00 0.00 0.00 84 1011.4
20260504185015 52 213 16.0 21.0 0.00 0.00 0.00 84 1011.6
20260504184541 52 203 17.0 21.0 0.00 0.00 0.00 84 1011.6
20260504184016 52 200 17.0 22.0 0.00 0.00 0.00 84 1011.7
20260504183521 52 203 16.0 22.0 0.00 0.00 0.00 84 1011.8
20260504183037 52 202 17.0 22.0 0.00 0.00 0.00 84 1011.8
20260504182517 52 200 16.0 21.0 0.00 0.00 0.00 84 1012.0
20260504182015 52 203 16.0 20.0 0.00 0.00 0.00 84 1011.8
20260504181547 52 190 15.0 19.0 0.00 0.00 0.00 84 1012.2
20260504181021 52 222 13.0 19.0 0.00 0.00 0.00 85 1012.2
20260504180518 52 200 12.0 16.0 0.00 0.00 0.00 85 1012.4
20260504180110 52 209 13.0 17.0 0.00 0.00 0.00 85 1012.3
20260504175516 52 227 13.0 17.0 0.00 0.00 0.00 84 1012.3
20260504175017 53 225 13.0 18.0 0.00 0.00 0.00 84 1012.2
20260504174542 52 231 15.0 18.0 0.00 0.00 0.00 86 1012.4
20260504174017 52 230 12.0 17.0 0.00 0.00 0.00 86 1012.4
20260504173520 52 229 13.0 18.0 0.00 0.00 0.00 86 1012.5
20260504173058 52 224 14.0 17.0 0.00 0.00 0.00 87 1012.7
20260504172515 52 232 14.0 15.0 0.00 0.00 0.00 87 1012.6
20260504172016 52 227 12.0 15.0 0.00 0.00 0.00 88 1012.7
20260504171541 52 210 13.0 16.0 0.00 0.00 0.00 88 1012.7
20260504171020 52 217 13.0 17.0 0.00 0.00 0.00 88 1012.7
20260504170516 52 215 11.0 18.0 0.00 0.00 0.00 89 1012.9
20260504151016 51 226 13.0 15.0 0.00 0.00 0.00 86 1013.8
20260504150514 51 211 14.0 15.0 0.00 0.00 0.00 86 1013.8
20260504141020 51 225 11.0 16.0 0.00 0.00 0.00 85 1013.8
20260504140515 51 243 12.0 16.0 0.00 0.00 0.00 85 1013.9
20260504130516 50 225 14.0 18.0 0.00 0.00 0.00 86 1014.0
20260504110515 50 233 17.0 19.0 0.00 0.00 0.00 85 1013.7
20260504100517 49 235 16.0 19.0 0.00 0.00 0.00 86 1013.3
20260504081546 49 226 15.0 18.0 0.00 0.00 0.00 85 1012.8
20260504081014 49 244 15.0 18.0 0.00 0.00 0.00 85 1013.0
20260504080516 49 235 16.0 19.0 0.00 0.00 0.00 85 1012.7
20260504050519 48 246 11.0 12.0 0.00 0.00 0.00 89 1012.2
20260504050125 48 248 10.0 11.0 0.00 0.00 0.00 89 1012.3
20260504045515 48 233 10.0 12.0 0.00 0.00 0.00 88 1012.2
20260504045018 49 229 11.0 12.0 0.00 0.00 0.00 87 1012.2
20260504044551 49 232 11.0 14.0 0.00 0.00 0.00 87 1012.2
20260504044025 49 237 11.0 14.0 0.00 0.00 0.00 87 1012.2
20260504043517 49 245 9.0 12.0 0.00 0.00 0.00 87 1012.2
20260504043038 49 240 9.0 12.0 0.00 0.00 0.00 87 1012.2
20260504042511 49 219 9.0 13.0 0.00 0.00 0.00 88 1012.2
20260504042012 49 220 7.0 11.0 0.00 0.00 0.00 88 1012.2
20260504041538 49 219 8.0 11.0 0.00 0.00 0.00 87 1012.1
20260504041014 49 225 9.0 12.0 0.00 0.00 0.00 87 1012.0
20260504040513 49 223 11.0 12.0 0.00 0.00 0.00 86 1012.1
20260504040041 49 232 9.0 12.0 0.00 0.00 0.00 86 1012.0
20260504035514 49 242 8.0 11.0 0.00 0.00 0.00 84 1012.0
20260504035012 49 232 9.0 11.0 0.00 0.00 0.00 83 1011.9
20260504034547 49 236 10.0 12.0 0.00 0.00 0.00 83 1012.0
20260504034013 49 229 11.0 12.0 0.00 0.00 0.00 84 1011.9
20260504033521 49 229 10.0 11.0 0.00 0.00 0.00 85 1012.0
20260504033044 49 228 8.0 10.0 0.00 0.00 0.00 85 1012.0
20260504032516 49 209 7.0 10.0 0.00 0.00 0.00 83 1011.9
20260504032014 49 233 9.0 11.0 0.00 0.00 0.00 81 1011.9
20260504031558 49 229 10.0 10.0 0.00 0.00 0.00 80 1011.9
20260504031013 49 238 9.0 11.0 0.00 0.00 0.00 78 1012.0
20260504030510 49 252 9.0 10.0 0.00 0.00 0.00 76 1011.9
20260504030040 49 240 7.0 11.0 0.00 0.00 0.00 76 1011.9
20260504025512 49 235 7.0 11.0 0.00 0.00 0.00 76 1011.9
20260504025014 48 247 5.0 7.0 0.00 0.00 0.00 67 1012.0
20260504024542 49 253 5.0 7.0 0.00 0.00 0.00 74 1011.8
20260504024015 49 240 4.0 5.0 0.00 0.00 0.00 75 1011.9
20260504023514 49 248 4.0 6.0 0.00 0.00 0.00 77 1011.8
20260504023040 49 241 5.0 6.0 0.00 0.00 0.00 79 1011.8
20260504022516 49 232 5.0 6.0 0.00 0.00 0.00 83 1011.7
20260504022011 48 225 5.0 6.0 0.00 0.00 0.00 86 1011.8
20260504021538 48 211 4.0 6.0 0.00 0.00 0.00 86 1011.8
20260504021014 48 209 4.0 6.0 0.00 0.00 0.00 85 1011.8
20260504020512 49 200 4.0 6.0 0.00 0.00 0.00 83 1011.8
20260504020040 49 184 5.0 7.0 0.00 0.00 0.00 82 1011.8
20260504015514 49 184 5.0 8.0 0.00 0.00 0.00 80 1011.8
20260504015017 49 182 6.0 8.0 0.00 0.00 0.00 79 1011.7
20260504014537 49 171 8.0 9.0 0.00 0.00 0.00 77 1011.7
20260504014014 50 166 8.0 9.0 0.00 0.00 0.00 75 1011.6
20260504013513 50 168 7.0 9.0 0.00 0.00 0.00 73 1011.6
20260504013044 50 168 7.0 9.0 0.00 0.00 0.00 69 1011.5
20260504012515 50 156 7.0 9.0 0.00 0.00 0.00 69 1011.5
20260504012012 50 171 6.0 8.0 0.00 0.00 0.00 64 1011.6
20260504011601 52 180 6.0 7.0 0.00 0.00 0.00 52 1011.5
20260504011013 52 167 6.0 6.0 0.00 0.00 0.00 45 1011.3
20260504010511 52 164 6.0 6.0 0.00 0.00 0.00 44 1011.3
20260504010044 52 165 5.0 5.0 0.00 0.00 0.00 45 1011.2
20260504005514 52 160 2.0 4.0 0.00 0.00 0.00 44 1011.1
20260504005014 52 156 1.0 2.0 0.00 0.00 0.00 43 1011.1
20260504004537 52 184 1.0 2.0 0.00 0.00 0.00 43 1011.0
20260504004010 52 184 1.0 2.0 0.00 0.00 0.00 43 1011.0
20260504003512 52 204 1.0 1.0 0.00 0.00 0.00 43 1011.0
20260504003043 53 275 0.0 1.0 0.00 0.00 0.00 42 1010.9
20260504002514 53 275 0.0 1.0 0.00 0.00 0.00 41 1010.9